Voltar ao catálogo

COSMOS 1317 DEB

LostHEO
NORAD 35508·DEBRIS·🇷🇺 Russia

Lançado Oct 31, 1981 de Plesetsk Cosmodrome

Loading…

Próximas Passagens (próximas 24 horas)

TLE

ObsoletoSource: Space-Track

Época: Oct 18, 2010, 18:05 UTC

1 35508U 81108H   10291.75385569  .00000654  00000-0  00000+0 0  9994
2 35508  71.3949 321.1066 5287555 132.4813   3.2597  2.00432404 15678

Acompanhe COSMOS 1317 DEB em tempo real com AllMySat

Download on the App Store